QPF
0.01 0.01 0.01 0.01 0.01 0.02 0.02 0.02 0.03 0.06 0.09 0.11 0.11 0.09 0.09 0.06 0.06 0.05 0.03 0.01 0.01 0.00 0.00 0.00 0.00 0.00 0.00 0.00 0.00 0.00 0.00 0.00 0.00 0.01 0.01 0.01 0.01 0.00 0.00 0.01 0.00 0.01 0.01 0.01 0.01 0.01 0.01 0.00 0.00 0.00 0.01 0.00 0.01 0.06 0.11 0.18 0.31 0.27 0.35 0.37 0.37 0.12 0.04 0.02 0.01 0.02 0.00 0.00 0.00 0.00 0.00 0.00 0.00 0.00
0.02 0.02 0.01 0.01 0.01 0.01 0.01 0.01 0.02 0.05 0.08 0.11 0.12 0.10 0.08 0.07 0.09 0.06 0.04 0.02 0.01 0.00 0.00 0.00 0.00 0.00 0.00 0.00 0.00 0.01 0.00 0.00 0.00 0.00 0.00 0.01 0.01 0.01 0.00 0.00 0.01 0.00 0.00 0.01 0.01 0.01 0.01 0.00 0.00 0.00 0.00 0.00 0.00 0.01 0.03 0.07 0.19 0.39 0.28 0.29 0.32 0.27 0.13 0.08 0.08 0.02 0.02 0.03 0.00 0.00 0.00 0.00 0.00 0.00
0.01 0.01 0.01 0.01 0.01 0.00 0.01 0.02 0.02 0.03 0.05 0.08 0.09 0.09 0.07 0.07 0.08 0.07 0.06 0.05 0.01 0.00 0.00 0.00 0.00 0.00 0.00 0.00 0.00 0.00 0.01 0.01 0.00 0.00 0.00 0.00 0.01 0.01 0.01 0.00 0.00 0.01 0.00 0.01 0.00 0.01 0.02 0.01 0.00 0.00 0.00 0.00 0.00 0.00 0.00 0.02 0.05 0.18 0.30 0.25 0.27 0.29 0.23 0.20 0.14 0.10 0.04 0.04 0.01 0.01 0.00 0.00 0.00 0.00
0.01 0.02 0.02 0.02 0.02 0.02 0.03 0.03 0.02 0.02 0.03 0.06 0.10 0.11 0.09 0.07 0.06 0.07 0.08 0.06 0.03 0.01 0.01 0.00 0.00 0.00 0.00 0.00 0.00 0.00 0.00 0.00 0.00 0.00 0.00 0.00 0.00 0.00 0.01 0.01 0.00 0.00 0.00 0.01 0.00 0.00 0.00 0.01 0.00 0.00 0.00 0.00 0.00 0.00 0.00 0.00 0.01 0.06 0.16 0.27 0.26 0.22 0.23 0.20 0.15 0.11 0.11 0.07 0.05 0.01 0.00 0.00 0.00 0.00
0.02 0.04 0.06 0.05 0.04 0.04 0.04 0.03 0.02 0.02 0.03 0.05 0.09 0.13 0.13 0.10 0.06 0.08 0.09 0.08 0.04 0.01 0.01 0.02 0.01 0.00 0.00 0.00 0.00 0.00 0.00 0.00 0.00 0.00 0.00 0.00 0.00 0.00 0.00 0.00 0.00 0.00 0.00 0.00 0.00 0.00 0.00 0.00 0.00 0.00 0.01 0.01 0.00 0.00 0.00 0.00 0.00 0.00 0.04 0.13 0.27 0.24 0.23 0.22 0.15 0.11 0.11 0.09 0.09 0.05 0.02 0.00 0.00 0.00
0.03 0.04 0.06 0.05 0.05 0.04 0.04 0.03 0.02 0.01 0.01 0.04 0.06 0.10 0.14 0.12 0.07 0.05 0.08 0.08 0.04 0.02 0.01 0.01 0.02 0.01 0.01 0.00 0.00 0.00 0.00 0.00 0.00 0.00 0.00 0.00 0.00 0.00 0.00 0.00 0.00 0.00 0.00 0.00 0.00 0.01 0.02 0.01 0.00 0.00 0.00 0.00 0.00 0.00 0.00 0.00 0.00 0.00 0.00 0.03 0.17 0.23 0.27 0.26 0.28 0.16 0.09 0.12 0.08 0.06 0.04 0.02 0.00 0.00
0.04 0.05 0.05 0.05 0.05 0.05 0.05 0.04 0.04 0.02 0.02 0.04 0.06 0.08 0.12 0.14 0.10 0.06 0.07 0.08 0.08 0.04 0.02 0.02 0.02 0.03 0.03 0.02 0.01 0.00 0.00 0.00 0.00 0.00 0.00 0.00 0.00 0.00 0.00 0.00 0.00 0.00 0.00 0.00 0.00 0.01 0.00 0.00 0.01 0.00 0.00 0.00 0.00 0.00 0.00 0.00 0.00 0.00 0.00 0.02 0.02 0.08 0.18 0.24 0.23 0.26 0.10 0.08 0.08 0.05 0.04 0.04 0.01 0.00
0.06 0.06 0.05 0.04 0.06 0.08 0.08 0.07 0.06 0.04 0.04 0.04 0.05 0.06 0.09 0.13 0.14 0.11 0.08 0.09 0.08 0.05 0.03 0.03 0.03 0.05 0.06 0.05 0.03 0.01 0.00 0.00 0.00 0.00 0.00 0.00 0.00 0.00 0.00 0.00 0.00 0.00 0.00 0.00 0.00 0.00 0.00 0.00 0.00 0.01 0.00 0.00 0.00 0.00 0.00 0.00 0.00 0.00 0.00 0.00 0.00 0.04 0.07 0.19 0.36 0.23 0.26 0.11 0.07 0.05 0.05 0.05 0.03 0.01
0.07 0.06 0.05 0.05 0.06 0.08 0.09 0.07 0.06 0.06 0.04 0.05 0.06 0.06 0.07 0.11 0.12 0.11 0.12 0.13 0.10 0.08 0.07 0.04 0.04 0.05 0.08 0.09 0.06 0.03 0.02 0.01 0.01 0.01 0.01 0.01 0.01 0.01 0.00 0.00 0.00 0.00 0.00 0.00 0.00 0.00 0.00 0.00 0.00 0.01 0.00 0.00 0.00 0.00 0.00 0.00 0.00 0.00 0.00 0.00 0.00 0.00 0.01 0.03 0.11 0.18 0.25 0.21 0.14 0.08 0.04 0.04 0.05 0.05
0.07 0.07 0.05 0.05 0.06 0.08 0.10 0.09 0.07 0.06 0.05 0.06 0.07 0.08 0.08 0.09 0.10 0.11 0.11 0.10 0.11 0.09 0.06 0.04 0.06 0.08 0.08 0.09 0.11 0.06 0.03 0.03 0.02 0.02 0.02 0.02 0.02 0.01 0.01 0.01 0.00 0.00 0.00 0.00 0.00 0.00 0.00 0.00 0.00 0.00 0.00 0.01 0.00 0.00 0.00 0.00 0.00 0.00 0.00 0.00 0.00 0.00 0.00 0.00 0.00 0.05 0.10 0.15 0.11 0.10 0.06 0.04 0.03 0.06
0.06 0.07 0.07 0.05 0.06 0.09 0.11 0.10 0.10 0.08 0.06 0.06 0.06 0.08 0.09 0.11 0.10 0.09 0.10 0.11 0.09 0.09 0.06 0.05 0.06 0.09 0.10 0.09 0.09 0.09 0.06 0.04 0.03 0.03 0.02 0.02 0.02 0.02 0.02 0.01 0.01 0.01 0.00 0.00 0.00 0.00 0.00 0.00 0.00 0.00 0.00 0.00 0.00 0.00 0.00 0.00 0.00 0.00 0.00 0.00 0.00 0.00 0.00 0.00 0.00 0.00 0.01 0.05 0.07 0.08 0.07 0.05 0.02 0.01
0.05 0.07 0.08 0.08 0.07 0.10 0.13 0.13 0.13 0.10 0.08 0.05 0.03 0.05 0.06 0.08 0.10 0.09 0.08 0.09 0.10 0.08 0.07 0.06 0.05 0.05 0.08 0.10 0.09 0.10 0.11 0.09 0.06 0.04 0.04 0.03 0.02 0.02 0.02 0.02 0.02 0.01 0.01 0.00 0.00 0.00 0.00 0.00 0.00 0.00 0.00 0.00 0.00 0.00 0.00 0.00 0.00 0.00 0.00 0.00 0.00 0.00 0.00 0.00 0.00 0.00 0.00 0.00 0.01 0.03 0.04 0.03 0.01 0.01
0.04 0.04 0.06 0.08 0.09 0.10 0.12 0.13 0.13 0.12 0.11 0.10 0.06 0.03 0.04 0.06 0.09 0.10 0.10 0.07 0.07 0.08 0.08 0.06 0.05 0.06 0.07 0.07 0.07 0.08 0.08 0.08 0.07 0.05 0.03 0.03 0.03 0.02 0.02 0.02 0.02 0.02 0.02 0.01 0.00 0.00 0.00 0.00 0.00 0.00 0.00 0.00 0.00 0.00 0.00 0.00 0.00 0.00 0.00 0.00 0.00 0.00 0.00 0.00 0.00 0.00 0.00 0.00 0.00 0.00 0.01 0.01 0.01 0.01
0.02 0.03 0.03 0.05 0.06 0.07 0.08 0.09 0.08 0.06 0.07 0.07 0.07 0.09 0.08 0.06 0.06 0.08 0.09 0.09 0.06 0.06 0.07 0.06 0.05 0.04 0.05 0.06 0.06 0.05 0.04 0.03 0.04 0.06 0.06 0.04 0.03 0.03 0.03 0.03 0.03 0.03 0.03 0.02 0.02 0.01 0.00 0.00 0.00 0.00 0.00 0.00 0.00 0.00 0.00 0.00 0.00 0.00 0.00 0.00 0.00 0.00 0.00 0.00 0.00 0.00 0.00 0.00 0.00 0.00 0.00 0.00 0.00 0.00
0.01 0.02 0.02 0.03 0.04 0.04 0.04 0.04 0.04 0.04 0.04 0.05 0.06 0.06 0.08 0.10 0.12 0.10 0.07 0.05 0.07 0.06 0.04 0.05 0.06 0.04 0.03 0.03 0.05 0.05 0.04 0.05 0.06 0.06 0.05 0.04 0.05 0.06 0.05 0.05 0.05 0.04 0.04 0.03 0.02 0.02 0.01 0.00 0.00 0.00 0.00 0.00 0.00 0.00 0.00 0.00 0.00 0.00 0.00 0.00 0.00 0.00 0.00 0.00 0.00 0.00 0.00 0.00 0.00 0.00 0.00 0.00 0.00 0.00
0.00 0.01 0.01 0.02 0.02 0.02 0.02 0.02 0.03 0.03 0.03 0.03 0.03 0.04 0.05 0.06 0.06 0.07 0.09 0.09 0.07 0.06 0.05 0.04 0.03 0.04 0.04 0.03 0.04 0.04 0.06 0.06 0.07 0.08 0.09 0.08 0.09 0.08 0.05 0.03 0.03 0.04 0.04 0.03 0.03 0.02 0.02 0.01 0.00 0.00 0.00 0.00 0.00 0.00 0.00 0.00 0.00 0.00 0.00 0.00 0.00 0.00 0.00 0.00 0.00 0.00 0.00 0.00 0.00 0.00 0.00 0.00 0.00 0.00
0.00 0.00 0.01 0.01 0.01 0.01 0.01 0.01 0.02 0.02 0.02 0.03 0.02 0.02 0.02 0.02 0.02 0.03 0.04 0.06 0.08 0.10 0.07 0.05 0.04 0.03 0.03 0.04 0.05 0.05 0.05 0.04 0.05 0.06 0.07 0.08 0.08 0.07 0.06 0.04 0.03 0.03 0.04 0.06 0.06 0.03 0.02 0.01 0.01 0.01 0.00 0.00 0.00 0.00 0.00 0.00 0.00 0.00 0.00 0.00 0.00 0.00 0.00 0.00 0.00 0.00 0.00 0.00 0.00 0.00 0.00 0.00 0.00 0.00
0.00 0.00 0.00 0.01 0.01 0.00 0.00 0.00 0.01 0.02 0.01 0.02 0.02 0.02 0.02 0.02 0.01 0.01 0.03 0.04 0.05 0.06 0.05 0.04 0.04 0.03 0.03 0.02 0.03 0.08 0.09 0.09 0.06 0.04 0.04 0.04 0.05 0.05 0.04 0.03 0.04 0.05 0.06 0.06 0.05 0.04 0.03 0.02 0.01 0.01 0.00 0.00 0.00 0.00 0.00 0.00 0.00 0.00 0.00 0.00 0.00 0.00 0.00 0.00 0.00 0.00 0.00 0.00 0.00 0.00 0.00 0.00 0.00 0.00
0.00 0.01 0.01 0.01 0.01 0.01 0.01 0.01 0.01 0.01 0.01 0.01 0.01 0.02 0.02 0.02 0.02 0.01 0.02 0.03 0.04 0.06 0.06 0.04 0.03 0.03 0.03 0.02 0.02 0.03 0.05 0.06 0.08 0.08 0.05 0.04 0.05 0.05 0.05 0.05 0.05 0.04 0.04 0.03 0.04 0.04 0.02 0.01 0.01 0.01 0.01 0.00 0.00 0.00 0.00 0.00 0.00 0.00 0.00 0.00 0.00 0.00 0.00 0.00 0.00 0.00 0.00 0.00 0.00 0.00 0.00 0.00 0.00 0.00
0.01 0.00 0.01 0.01 0.01 0.01 0.01 0.01 0.02 0.01 0.01 0.00 0.01 0.01 0.01 0.02 0.01 0.01 0.01 0.01 0.02 0.05 0.06 0.06 0.04 0.03 0.02 0.02 0.02 0.02 0.03 0.03 0.04 0.06 0.07 0.06 0.07 0.07 0.07 0.05 0.03 0.02 0.02 0.02 0.03 0.02 0.02 0.01 0.01 0.01 0.00 0.00 0.00 0.00 0.00 0.00 0.00 0.00 0.00 0.01 0.00 0.00 0.00 0.00 0.00 0.00 0.00 0.00 0.00 0.00 0.00 0.00 0.00 0.00
0.01 0.01 0.01 0.01 0.01 0.02 0.02 0.02 0.02 0.01 0.01 0.01 0.01 0.01 0.01 0.01 0.01 0.01 0.00 0.00 0.00 0.00 0.01 0.01 0.02 0.02 0.01 0.01 0.01 0.01 0.02 0.02 0.03 0.03 0.06 0.05 0.04 0.06 0.06 0.04 0.03 0.02 0.01 0.01 0.01 0.01 0.01 0.01 0.00 0.00 0.00 0.00 0.00 0.01 0.00 0.00 0.00 0.00 0.00 0.00 0.01 0.01 0.01 0.00 0.00 0.00 0.00 0.00 0.00 0.00 0.00 0.00 0.00 0.00
0.01 0.01 0.01 0.01 0.02 0.03 0.02 0.02 0.02 0.01 0.01 0.01 0.01 0.01 0.01 0.01 0.00 0.00 0.00 0.00 0.00 0.00 0.00 0.00 0.00 0.00 0.00 0.00 0.00 0.01 0.01 0.01 0.02 0.02 0.03 0.02 0.03 0.05 0.04 0.03 0.02 0.01 0.01 0.01 0.01 0.01 0.01 0.00 0.00 0.00 0.00 0.00 0.00 0.00 0.00 0.00 0.01 0.01 0.00 0.00 0.00 0.00 0.01 0.01 0.01 0.00 0.00 0.00 0.00 0.00 0.00 0.00 0.00 0.00
0.01 0.01 0.01 0.01 0.02 0.03 0.02 0.02 0.02 0.01 0.01 0.01 0.01 0.01 0.01 0.01 0.00 0.00 0.00 0.00 0.00 0.00 0.00 0.00 0.00 0.00 0.00 0.00 0.00 0.00 0.00 0.01 0.01 0.01 0.01 0.01 0.03 0.03 0.03 0.03 0.02 0.02 0.02 0.01 0.00 0.01 0.01 0.00 0.00 0.00 0.00 0.00 0.00 0.00 0.00 0.00 0.00 0.01 0.01 0.01 0.01 0.00 0.00 0.00 0.00 0.01 0.01 0.01 0.00 0.00 0.00 0.00 0.00 0.00
0.01 0.01 0.01 0.01 0.02 0.02 0.02 0.01 0.01 0.01 0.01 0.01 0.01 0.01 0.01 0.01 0.01 0.00 0.00 0.00 0.00 0.00 0.00 0.00 0.00 0.00 0.00 0.00 0.00 0.00 0.00 0.00 0.00 0.00 0.01 0.01 0.01 0.02 0.02 0.02 0.02 0.02 0.01 0.00 0.00 0.01 0.00 0.00 0.00 0.00 0.00 0.01 0.01 0.00 0.00 0.00 0.00 0.00 0.01 0.01 0.01 0.01 0.00 0.00 0.00 0.00 0.00 0.01 0.01 0.01 0.01 0.00 0.00 0.00
0.01 0.01 0.01 0.01 0.02 0.02 0.02 0.01 0.01 0.01 0.01 0.01 0.01 0.01 0.01 0.01 0.01 0.00 0.00 0.00 0.00 0.00 0.00 0.00 0.00 0.00 0.00 0.00 0.00 0.00 0.00 0.00 0.00 0.00 0.00 0.01 0.01 0.01 0.01 0.02 0.02 0.02 0.01 0.00 0.00 0.00 0.01 0.00 0.00 0.00 0.00 0.00 0.00 0.00 0.00 0.00 0.00 0.00 0.00 0.00 0.00 0.00 0.00 0.00 0.00 0.00 0.00 0.00 0.00 0.01 0.02 0.02 0.01 0.01
0.01 0.01 0.02 0.02 0.02 0.02 0.01 0.01 0.01 0.01 0.01 0.01 0.01 0.01 0.01 0.00 0.00 0.00 0.00 0.00 0.00 0.00 0.00 0.00 0.00 0.00 0.00 0.00 0.00 0.00 0.00 0.00 0.00 0.00 0.00 0.00 0.00 0.01 0.01 0.01 0.01 0.01 0.01 0.01 0.00 0.01 0.01 0.01 0.00 0.00 0.00 0.00 0.00 0.00 0.01 0.01 0.00 0.00 0.00 0.00 0.00 0.00 0.00 0.00 0.00 0.00 0.00 0.00 0.00 0.00 0.00 0.01 0.01 0.01
0.01 0.01 0.02 0.02 0.02 0.02 0.01 0.01 0.01 0.01 0.01 0.01 0.01 0.01 0.00 0.00 0.00 0.00 0.00 0.00 0.00 0.00 0.00 0.00 0.00 0.00 0.00 0.00 0.00 0.00 0.00 0.00 0.00 0.00 0.00 0.00 0.00 0.01 0.01 0.01 0.01 0.01 0.01 0.02 0.03 0.02 0.02 0.02 0.00 0.00 0.00 0.00 0.00 0.00 0.00 0.01 0.01 0.00 0.00 0.00 0.00 0.00 0.00 0.00 0.00 0.00 0.00 0.00 0.00 0.00 0.00 0.00 0.00 0.00
0.01 0.02 0.02 0.02 0.01 0.01 0.01 0.01 0.01 0.01 0.01 0.01 0.01 0.01 0.00 0.00 0.00 0.00 0.00 0.00 0.00 0.00 0.00 0.01 0.01 0.01 0.01 0.01 0.00 0.00 0.00 0.00 0.00 0.00 0.00 0.00 0.01 0.01 0.01 0.01 0.01 0.01 0.01 0.02 0.04 0.03 0.03 0.03 0.02 0.01 0.00 0.00 0.01 0.01 0.01 0.00 0.00 0.00 0.00 0.00 0.00 0.00 0.00 0.00 0.00 0.00 0.00 0.00 0.00 0.00 0.00 0.00 0.00 0.00
0.00 0.01 0.01 0.02 0.01 0.01 0.01 0.01 0.01 0.00 0.01 0.01 0.01 0.00 0.00 0.00 0.00 0.00 0.00 0.00 0.00 0.00 0.00 0.00 0.01 0.01 0.00 0.00 0.00 0.00 0.00 0.00 0.00 0.00 0.00 0.00 0.01 0.01 0.01 0.02 0.02 0.02 0.02 0.03 0.03 0.03 0.03 0.03 0.03 0.01 0.01 0.00 0.00 0.01 0.00 0.00 0.00 0.00 0.00 0.00 0.00 0.00 0.00 0.00 0.00 0.00 0.00 0.00 0.00 0.00 0.00 0.00 0.00 0.00
0.00 0.00 0.01 0.01 0.02 0.02 0.02 0.01 0.01 0.01 0.01 0.01 0.01 0.00 0.00 0.00 0.00 0.00 0.00 0.00 0.00 0.00 0.00 0.00 0.00 0.00 0.00 0.00 0.00 0.00 0.00 0.00 0.00 0.00 0.00 0.00 0.00 0.01 0.03 0.04 0.03 0.02 0.03 0.04 0.04 0.04 0.03 0.03 0.04 0.03 0.01 0.00 0.00 0.00 0.00 0.00 0.00 0.00 0.00 0.00 0.00 0.00 0.00 0.00 0.00 0.00 0.00 0.00 0.00 0.00 0.00 0.00 0.00 0.00
0.00 0.00 0.00 0.01 0.01 0.01 0.01 0.01 0.01 0.01 0.01 0.00 0.00 0.01 0.01 0.01 0.00 0.00 0.00 0.00 0.00 0.00 0.00 0.00 0.00 0.00 0.00 0.00 0.00 0.00 0.00 0.00 0.00 0.00 0.00 0.01 0.01 0.01 0.02 0.03 0.04 0.03 0.01 0.01 0.02 0.02 0.03 0.03 0.03 0.05 0.03 0.01 0.00 0.00 0.00 0.00 0.00 0.00 0.00 0.00 0.00 0.00 0.00 0.00 0.00 0.00 0.00 0.00 0.00 0.00 0.00 0.00 0.00 0.00
0.00 0.00 0.00 0.00 0.00 0.00 0.00 0.00 0.00 0.01 0.01 0.01 0.01 0.01 0.01 0.01 0.01 0.01 0.01 0.00 0.00 0.00 0.00 0.00 0.00 0.00 0.00 0.00 0.00 0.00 0.00 0.00 0.00 0.00 0.01 0.01 0.01 0.02 0.02 0.03 0.03 0.03 0.03 0.02 0.01 0.01 0.01 0.02 0.03 0.05 0.04 0.02 0.01 0.00 0.00 0.00 0.00 0.00 0.00 0.00 0.00 0.00 0.00 0.00 0.00 0.00 0.00 0.00 0.00 0.00 0.00 0.00 0.00 0.00
0.00 0.00 0.00 0.00 0.00 0.00 0.00 0.00 0.00 0.00 0.00 0.01 0.01 0.01 0.01 0.01 0.01 0.01 0.01 0.01 0.01 0.01 0.00 0.01 0.01 0.01 0.01 0.00 0.00 0.00 0.00 0.00 0.00 0.00 0.01 0.00 0.01 0.02 0.03 0.03 0.02 0.02 0.02 0.02 0.02 0.01 0.01 0.01 0.01 0.03 0.04 0.04 0.02 0.01 0.01 0.01 0.00 0.00 0.00 0.00 0.00 0.00 0.00 0.00 0.00 0.00 0.00 0.00 0.00 0.01 0.00 0.00 0.00 0.00
0.00 0.00 0.00 0.00 0.00 0.00 0.00 0.00 0.00 0.00 0.00 0.01 0.01 0.01 0.01 0.01 0.01 0.01 0.01 0.01 0.01 0.01 0.01 0.01 0.01 0.01 0.01 0.01 0.01 0.00 0.00 0.00 0.00 0.00 0.01 0.01 0.02 0.02 0.02 0.03 0.02 0.02 0.01 0.01 0.01 0.01 0.01 0.00 0.00 0.01 0.02 0.03 0.04 0.03 0.03 0.02 0.01 0.00 0.00 0.00 0.00 0.00 0.00 0.00 0.00 0.00 0.00 0.00 0.00 0.00 0.01 0.01 0.00 0.00
0.00 0.00 0.00 0.00 0.00 0.00 0.00 0.00 0.00 0.00 0.00 0.01 0.01 0.01 0.01 0.01 0.01 0.01 0.01 0.02 0.02 0.01 0.01 0.01 0.01 0.01 0.01 0.01 0.01 0.01 0.01 0.01 0.00 0.00 0.00 0.01 0.01 0.02 0.03 0.03 0.02 0.02 0.03 0.02 0.01 0.01 0.01 0.01 0.01 0.01 0.02 0.02 0.02 0.02 0.01 0.01 0.01 0.01 0.00 0.00 0.00 0.00 0.00 0.00 0.00 0.00 0.00 0.00 0.00 0.00 0.00 0.00 0.00 0.00
0.00 0.00 0.00 0.00 0.00 0.00 0.00 0.00 0.00 0.00 0.00 0.01 0.01 0.01 0.01 0.01 0.01 0.01 0.01 0.02 0.02 0.02 0.02 0.02 0.02 0.01 0.01 0.01 0.02 0.02 0.01 0.01 0.01 0.00 0.00 0.00 0.01 0.02 0.02 0.02 0.02 0.01 0.02 0.02 0.01 0.01 0.00 0.00 0.01 0.01 0.01 0.02 0.03 0.02 0.01 0.00 0.00 0.00 0.00 0.01 0.01 0.00 0.00 0.00 0.00 0.00 0.00 0.00 0.00 0.00 0.00 0.00 0.00 0.00
0.00 0.00 0.00 0.00 0.00 0.00 0.00 0.00 0.00 0.00 0.00 0.01 0.01 0.01 0.01 0.01 0.02 0.01 0.01 0.01 0.01 0.01 0.02 0.02 0.02 0.02 0.02 0.01 0.01 0.02 0.02 0.01 0.01 0.01 0.01 0.00 0.00 0.02 0.03 0.02 0.01 0.02 0.02 0.01 0.01 0.01 0.01 0.00 0.00 0.01 0.01 0.01 0.01 0.01 0.00 0.00 0.00 0.00 0.00 0.00 0.00 0.00 0.00 0.00 0.00 0.00 0.00 0.00 0.00 0.00 0.00 0.00 0.00 0.00
0.00 0.00 0.00 0.00 0.00 0.00 0.00 0.00 0.00 0.00 0.00 0.00 0.00 0.00 0.01 0.01 0.01 0.01 0.01 0.01 0.01 0.01 0.01 0.01 0.01 0.01 0.01 0.01 0.01 0.01 0.01 0.01 0.02 0.02 0.02 0.02 0.01 0.01 0.02 0.04 0.04 0.03 0.02 0.02 0.02 0.02 0.02 0.01 0.00 0.00 0.00 0.00 0.00 0.00 0.00 0.00 0.00 0.00 0.00 0.00 0.00 0.00 0.00 0.00 0.00 0.00 0.00 0.00 0.00 0.00 0.00 0.00 0.00 0.00
0.00 0.00 0.00 0.00 0.00 0.00 0.00 0.00 0.00 0.00 0.00 0.00 0.00 0.00 0.00 0.00 0.00 0.01 0.01 0.01 0.01 0.01 0.01 0.01 0.01 0.01 0.01 0.01 0.01 0.01 0.01 0.01 0.01 0.01 0.02 0.02 0.02 0.01 0.01 0.02 0.04 0.04 0.05 0.03 0.01 0.02 0.03 0.02 0.02 0.01 0.00 0.00 0.00 0.00 0.00 0.00 0.00 0.00 0.00 0.00 0.00 0.00 0.00 0.00 0.00 0.00 0.00 0.00 0.00 0.00 0.00 0.00 0.00 0.00
0.00 0.00 0.00 0.00 0.00 0.00 0.00 0.00 0.00 0.00 0.00 0.00 0.00 0.00 0.00 0.00 0.00 0.00 0.01 0.01 0.01 0.01 0.01 0.01 0.01 0.01 0.01 0.01 0.01 0.01 0.01 0.01 0.01 0.01 0.01 0.01 0.02 0.02 0.02 0.01 0.01 0.02 0.05 0.06 0.05 0.03 0.02 0.01 0.00 0.01 0.00 0.00 0.00 0.00 0.00 0.00 0.00 0.00 0.00 0.00 0.00 0.00 0.00 0.00 0.00 0.00 0.00 0.00 0.00 0.00 0.00 0.00 0.00 0.00
0.00 0.00 0.00 0.00 0.00 0.00 0.00 0.00 0.00 0.00 0.00 0.00 0.00 0.00 0.00 0.00 0.00 0.00 0.01 0.01 0.01 0.01 0.01 0.01 0.01 0.01 0.01 0.01 0.01 0.01 0.01 0.01 0.01 0.01 0.01 0.01 0.01 0.01 0.01 0.01 0.01 0.01 0.01 0.02 0.03 0.06 0.06 0.02 0.01 0.00 0.00 0.00 0.00 0.03 0.07 0.01 0.00 0.00 0.00 0.00 0.00 0.00 0.00 0.00 0.00 0.00 0.00 0.00 0.00 0.00 0.00 0.00 0.00 0.00
0.00 0.00 0.00 0.00 0.00 0.00 0.00 0.00 0.00 0.00 0.00 0.00 0.00 0.00 0.00 0.00 0.00 0.00 0.00 0.00 0.00 0.00 0.00 0.00 0.01 0.01 0.01 0.01 0.01 0.01 0.01 0.01 0.01 0.01 0.01 0.01 0.01 0.01 0.01 0.01 0.01 0.01 0.01 0.01 0.01 0.01 0.02 0.02 0.03 0.04 0.03 0.18 0.01 0.04 0.04 0.02 0.01 0.01 0.00 0.00 0.00 0.00 0.00 0.00 0.00 0.00 0.00 0.00 0.00 0.00 0.00 0.02 0.01 0.00
0.00 0.00 0.00 0.00 0.00 0.00 0.00 0.00 0.00 0.00 0.00 0.00 0.00 0.00 0.00 0.00 0.00 0.00 0.00 0.00 0.00 0.00 0.00 0.00 0.00 0.00 0.00 0.01 0.01 0.01 0.01 0.01 0.01 0.01 0.01 0.01 0.01 0.01 0.01 0.01 0.01 0.01 0.01 0.01 0.00 0.00 0.00 0.00 0.00 0.01 0.03 0.05 0.07 0.07 0.04 0.02 0.02 0.02 0.02 0.02 0.02 0.00 0.01 0.00 0.00 0.00 0.00 0.00 0.00 0.00 0.00 0.00 0.00 0.00
0.00 0.00 0.00 0.00 0.00 0.00 0.00 0.00 0.00 0.00 0.00 0.00 0.00 0.00 0.00 0.00 0.00 0.00 0.00 0.00 0.00 0.00 0.00 0.00 0.00 0.00 0.00 0.00 0.00 0.00 0.01 0.01 0.01 0.01 0.01 0.01 0.01 0.01 0.01 0.01 0.01 0.01 0.00 0.00 0.00 0.00 0.00 0.00 0.00 0.01 0.01 0.01 0.01 0.02 0.02 0.01 0.01 0.01 0.04 0.03 0.11 0.06 0.00 0.01 0.01 0.00 0.00 0.00 0.03 0.01 0.00 0.00 0.00 0.00
0.00 0.00 0.00 0.00 0.00 0.00 0.00 0.00 0.00 0.00 0.00 0.00 0.00 0.00 0.00 0.00 0.00 0.00 0.00 0.00 0.00 0.00 0.00 0.00 0.00 0.00 0.00 0.00 0.00 0.00 0.00 0.00 0.00 0.01 0.01 0.01 0.01 0.01 0.01 0.01 0.01 0.01 0.00 0.00 0.01 0.00 0.00 0.00 0.01 0.01 0.01 0.01 0.01 0.00 0.00 0.00 0.00 0.01 0.00 0.00 0.00 0.00 0.00 0.01 0.02 0.02 0.00 0.00 0.00 0.00 0.00 0.00 0.00 0.00
MSLP
1009.00 1008.32 1007.92 1007.40 1006.48 1005.36 1004.32 1003.44 1002.80 1002.44 1002.16 1001.92 1001.68 1001.44 1001.32 1001.24 1001.04 1000.68 1000.36 999.96 999.80 999.20 998.88 999.04 999.08 999.04 999.00 999.04 999.16 999.40 999.60 999.80 1000.16 1000.48 1000.68 1000.88 1000.92 1000.96 1001.20 1001.52 1001.80 1002.12 1002.28 1002.56 1003.08 1003.60 1003.96 1004.12 1004.24 1004.32 1004.32 1004.52 1004.92 1005.28 1005.64 1005.68 1005.80 1005.92 1006.00 1006.28 1006.72 1006.92 1007.00 1007.44 1007.88 1008.32 1008.72 1009.20 1009.56 1009.92 1010.32 1010.68 1011.00 1011.32
1008.80 1008.28 1007.84 1007.28 1006.40 1005.24 1004.24 1003.20 1002.44 1002.08 1001.84 1001.64 1001.44 1001.16 1000.84 1000.76 1000.72 1000.52 1000.32 999.80 999.24 999.04 998.64 998.40 998.48 998.72 998.80 998.88 999.00 999.04 999.20 999.44 999.80 1000.16 1000.36 1000.52 1000.60 1000.60 1000.88 1001.20 1001.56 1001.96 1002.24 1002.40 1002.80 1003.28 1003.68 1003.84 1004.00 1004.24 1004.40 1004.48 1004.60 1004.88 1005.28 1005.64 1005.80 1005.84 1006.00 1006.08 1006.40 1006.72 1006.92 1007.32 1007.72 1008.16 1008.60 1009.00 1009.28 1009.64 1010.04 1010.48 1010.88 1011.20
1008.76 1008.24 1007.76 1007.00 1006.20 1005.16 1004.28 1003.24 1002.20 1001.64 1001.44 1001.24 1001.00 1000.76 1000.52 1000.40 1000.32 1000.36 1000.36 1000.12 999.08 998.72 998.64 998.12 997.92 998.16 998.40 998.52 998.72 998.96 999.04 999.12 999.40 999.84 1000.12 1000.32 1000.36 1000.48 1000.60 1000.92 1001.32 1001.68 1002.04 1002.28 1002.52 1002.96 1003.40 1003.56 1003.68 1003.96 1004.28 1004.48 1004.48 1004.60 1004.80 1005.20 1005.52 1005.56 1005.80 1006.00 1006.28 1006.68 1006.92 1007.36 1007.72 1008.04 1008.40 1008.80 1009.12 1009.44 1009.76 1010.20 1010.64 1011.04
1008.76 1008.32 1007.76 1007.04 1006.24 1005.28 1004.40 1003.24 1002.08 1001.36 1000.96 1000.76 1000.64 1000.44 1000.24 1000.00 999.88 999.96 1000.04 999.88 999.48 998.80 998.60 998.32 998.24 997.96 997.96 998.20 998.48 998.72 998.96 999.16 999.20 999.36 999.76 999.96 1000.32 1000.56 1000.64 1000.76 1001.04 1001.40 1001.72 1002.00 1002.20 1002.44 1002.68 1002.80 1003.08 1003.44 1003.84 1004.04 1004.28 1004.44 1004.52 1004.76 1005.12 1005.28 1005.48 1005.76 1006.16 1006.48 1006.84 1007.04 1007.48 1007.84 1008.28 1008.60 1008.92 1009.28 1009.56 1009.88 1010.32 1010.76
1008.72 1008.24 1007.68 1006.96 1006.12 1005.36 1004.52 1003.40 1002.12 1001.08 1000.56 1000.32 1000.20 1000.12 1000.04 999.80 999.60 999.64 999.72 999.72 999.56 999.04 998.68 998.56 998.28 998.16 998.00 998.24 998.28 998.48 998.72 999.04 999.32 999.40 999.48 999.68 999.96 1000.20 1000.40 1000.64 1000.80 1001.00 1001.20 1001.44 1001.60 1001.80 1001.96 1002.24 1002.60 1003.00 1003.48 1003.72 1003.88 1004.12 1004.24 1004.40 1004.64 1004.96 1005.24 1005.52 1005.84 1006.28 1006.52 1006.76 1007.12 1007.48 1008.00 1008.44 1008.72 1009.04 1009.32 1009.64 1010.04 1010.44
1008.52 1008.08 1007.56 1006.76 1006.00 1005.24 1004.56 1003.44 1002.24 1001.04 1000.28 999.96 999.80 999.76 999.80 999.72 999.40 999.28 999.40 999.52 999.52 999.24 998.72 998.56 998.52 998.36 998.16 998.16 998.32 998.28 998.52 998.84 999.12 999.32 999.40 999.52 999.68 999.88 1000.08 1000.32 1000.56 1000.68 1000.80 1001.00 1001.20 1001.48 1001.60 1001.80 1002.24 1002.76 1003.16 1003.44 1003.60 1003.72 1003.88 1003.96 1004.12 1004.44 1004.96 1005.28 1005.60 1006.04 1006.36 1006.52 1006.80 1007.20 1007.68 1008.04 1008.48 1008.76 1009.04 1009.36 1009.72 1010.12
1008.48 1007.92 1007.40 1006.76 1006.04 1005.20 1004.40 1003.40 1002.56 1001.64 1000.56 999.76 999.52 999.44 999.52 999.64 999.48 999.12 999.00 999.24 999.36 999.24 998.96 998.60 998.56 998.48 998.40 998.28 998.40 998.36 998.48 998.68 998.84 999.12 999.32 999.40 999.52 999.64 999.80 999.92 1000.04 1000.24 1000.40 1000.56 1000.80 1001.12 1001.32 1001.44 1001.68 1002.24 1002.80 1003.12 1003.28 1003.44 1003.56 1003.68 1003.84 1004.04 1004.48 1005.00 1005.48 1005.92 1006.20 1006.36 1006.52 1006.88 1007.36 1007.76 1008.04 1008.36 1008.68 1009.04 1009.40 1009.80
1008.52 1007.96 1007.28 1006.64 1006.00 1005.20 1004.48 1003.56 1002.84 1002.00 1001.12 1000.12 999.36 999.24 999.32 999.40 999.40 999.24 998.80 998.76 999.04 999.00 999.16 998.68 998.60 998.56 998.56 998.48 998.52 998.52 998.60 998.76 998.96 999.12 999.28 999.40 999.48 999.56 999.68 999.72 999.76 999.80 999.96 1000.16 1000.40 1000.72 1001.00 1001.16 1001.48 1001.96 1002.48 1002.80 1002.92 1003.16 1003.36 1003.48 1003.64 1003.88 1004.20 1004.72 1005.28 1005.76 1006.00 1006.12 1006.40 1006.68 1006.96 1007.48 1007.80 1008.00 1008.32 1008.68 1009.16 1009.56
1008.64 1008.00 1007.52 1006.88 1006.16 1005.44 1004.68 1003.88 1003.28 1002.48 1001.64 1000.76 999.64 999.12 999.20 999.24 999.20 999.16 999.12 998.80 998.56 998.88 998.92 998.72 998.56 998.56 998.48 998.48 998.68 998.68 998.80 999.00 999.08 999.24 999.36 999.44 999.52 999.60 999.68 999.64 999.64 999.64 999.72 999.96 1000.24 1000.60 1000.92 1001.20 1001.44 1001.80 1002.20 1002.44 1002.60 1002.80 1003.04 1003.32 1003.52 1003.72 1004.12 1004.64 1005.12 1005.52 1005.92 1006.16 1006.16 1006.56 1006.96 1007.20 1007.48 1007.80 1008.04 1008.40 1008.84 1009.36
1008.64 1008.12 1007.64 1007.08 1006.52 1005.80 1005.08 1004.32 1003.68 1002.88 1002.12 1001.40 1000.60 999.76 999.32 999.12 999.08 999.04 998.96 999.00 998.76 998.48 998.72 998.72 998.68 998.52 998.52 998.56 998.72 998.80 998.76 998.96 999.28 999.44 999.56 999.64 999.68 999.68 999.72 999.76 999.76 999.84 1000.04 1000.20 1000.40 1000.64 1000.96 1001.24 1001.48 1001.72 1002.08 1002.32 1002.36 1002.40 1002.64 1002.96 1003.36 1003.64 1003.88 1004.32 1004.92 1005.32 1005.64 1006.00 1006.16 1006.16 1006.80 1007.08 1007.28 1007.60 1007.84 1008.20 1008.64 1009.12
1008.76 1008.40 1008.00 1007.44 1006.84 1006.16 1005.36 1004.68 1004.00 1003.28 1002.56 1001.92 1001.36 1000.80 1000.20 999.52 999.12 998.96 998.88 998.88 998.84 998.60 998.60 998.64 998.60 998.56 998.52 998.36 998.52 998.72 998.72 998.76 998.96 999.28 999.72 999.88 1000.00 999.92 999.84 999.96 1000.00 1000.00 1000.16 1000.24 1000.40 1000.60 1000.80 1001.08 1001.36 1001.64 1001.96 1002.12 1002.16 1002.24 1002.48 1002.88 1003.24 1003.60 1003.76 1004.00 1004.52 1005.20 1005.60 1005.84 1006.12 1006.20 1006.40 1006.80 1007.08 1007.24 1007.56 1007.92 1008.40 1008.88
1008.96 1008.52 1008.00 1007.44 1006.84 1006.20 1005.44 1004.84 1004.24 1003.76 1003.12 1002.44 1001.76 1001.16 1000.60 1000.04 999.40 998.96 998.84 998.76 998.68 998.60 998.44 998.52 998.56 998.68 998.72 998.56 998.36 998.52 998.72 998.88 998.96 999.00 999.12 999.32 999.72 999.84 999.96 999.92 1000.04 1000.20 1000.24 1000.40 1000.56 1000.76 1001.00 1001.24 1001.48 1001.68 1001.88 1002.00 1002.12 1002.32 1002.56 1002.88 1003.20 1003.52 1003.72 1003.84 1004.16 1004.76 1005.36 1005.68 1005.88 1006.04 1006.24 1006.52 1006.76 1007.00 1007.24 1007.64 1008.04 1008.48
1008.96 1008.48 1007.96 1007.44 1006.92 1006.28 1005.68 1005.24 1004.72 1004.16 1003.60 1002.96 1002.16 1001.28 1000.80 1000.36 999.84 999.12 998.76 998.68 998.60 998.56 998.44 998.40 998.44 998.60 998.64 998.68 998.64 998.64 998.72 998.92 998.96 999.12 998.96 999.08 999.20 999.52 999.72 999.96 1000.16 1000.24 1000.44 1000.68 1000.76 1000.84 1000.96 1001.20 1001.48 1001.72 1001.96 1002.08 1002.16 1002.36 1002.52 1002.84 1003.12 1003.32 1003.56 1003.76 1004.08 1004.56 1005.12 1005.44 1005.60 1005.84 1006.04 1006.28 1006.56 1006.84 1007.16 1007.48 1007.76 1008.08
1009.28 1008.88 1008.28 1007.76 1007.24 1006.68 1006.16 1005.56 1004.92 1004.24 1003.60 1003.04 1002.44 1001.72 1001.08 1000.64 1000.12 999.40 998.84 998.64 998.56 998.48 998.44 998.40 998.44 998.48 998.56 998.60 998.56 998.64 998.64 998.72 998.88 999.00 999.12 999.16 999.44 999.68 999.80 999.96 1000.12 1000.36 1000.52 1000.84 1001.04 1001.04 1001.08 1001.16 1001.44 1001.64 1001.80 1002.00 1002.20 1002.36 1002.60 1002.72 1002.92 1003.20 1003.40 1003.72 1004.04 1004.44 1004.96 1005.32 1005.48 1005.64 1005.84 1006.08 1006.40 1006.72 1007.08 1007.40 1007.68 1007.84
1009.44 1009.16 1008.76 1008.16 1007.60 1006.96 1006.40 1005.80 1005.16 1004.40 1003.52 1002.72 1002.00 1001.40 1001.00 1000.76 1000.52 999.92 999.24 998.84 998.68 998.56 998.44 998.48 998.52 998.48 998.48 998.64 998.48 998.52 998.64 998.72 998.80 998.96 999.12 999.24 999.36 999.52 999.60 999.64 999.96 1000.36 1000.40 1000.68 1000.84 1001.24 1001.16 1001.16 1001.28 1001.48 1001.60 1001.76 1002.04 1002.24 1002.36 1002.56 1002.88 1003.12 1003.36 1003.60 1003.92 1004.28 1004.68 1004.96 1005.20 1005.48 1005.76 1006.00 1006.32 1006.68 1007.08 1007.36 1007.56 1007.76
1009.96 1009.40 1008.88 1008.40 1007.88 1007.40 1006.84 1006.08 1005.24 1004.32 1003.48 1002.80 1002.16 1001.60 1001.04 1000.60 1000.28 1000.08 999.76 999.36 998.96 998.72 998.60 998.52 998.60 998.60 998.64 998.56 998.48 998.52 998.64 998.84 998.92 999.04 999.16 999.28 999.44 999.52 999.64 999.56 999.40 999.96 1000.32 1000.44 1000.48 1000.72 1001.20 1001.20 1001.20 1001.32 1001.40 1001.52 1001.72 1001.88 1002.08 1002.36 1002.60 1002.92 1003.24 1003.56 1003.84 1004.16 1004.48 1004.80 1005.04 1005.28 1005.52 1005.88 1006.20 1006.52 1006.88 1007.20 1007.44 1007.68
1010.44 1009.88 1009.36 1008.84 1008.24 1007.76 1007.08 1006.40 1005.60 1004.64 1003.72 1003.08 1002.64 1002.08 1001.48 1000.80 1000.40 1000.08 999.68 999.52 999.44 999.16 998.96 998.80 998.72 998.80 998.72 998.76 998.60 998.44 998.44 998.52 998.96 999.12 999.36 999.48 999.48 999.56 999.72 999.60 999.60 1000.16 1000.36 1000.40 1000.48 1000.44 1001.08 1001.28 1001.24 1001.24 1001.32 1001.40 1001.56 1001.76 1002.00 1002.24 1002.52 1002.80 1003.08 1003.36 1003.64 1003.92 1004.28 1004.60 1004.92 1005.20 1005.44 1005.72 1006.04 1006.36 1006.68 1006.92 1007.20 1007.48
1011.00 1010.48 1010.00 1009.44 1008.80 1008.24 1007.60 1006.80 1005.84 1004.92 1004.32 1003.68 1003.12 1002.52 1001.96 1001.28 1000.60 1000.16 999.92 999.72 999.52 999.40 999.24 999.08 999.00 998.88 998.76 998.88 998.68 998.68 998.64 998.76 998.80 998.96 999.28 999.44 999.64 999.76 999.76 999.60 999.68 999.96 1000.28 1000.08 1000.36 1000.48 1000.88 1001.24 1001.24 1001.28 1001.36 1001.32 1001.48 1001.60 1001.76 1002.04 1002.36 1002.64 1002.96 1003.24 1003.48 1003.72 1004.00 1004.36 1004.68 1005.00 1005.32 1005.60 1005.92 1006.28 1006.56 1006.84 1007.08 1007.36
1011.40 1010.96 1010.48 1009.88 1009.32 1008.72 1008.00 1007.16 1006.08 1005.32 1004.80 1004.40 1003.76 1003.12 1002.40 1001.84 1001.20 1000.64 1000.40 1000.28 1000.12 999.84 999.64 999.44 999.24 999.16 999.08 999.00 998.92 998.88 998.80 998.76 998.84 998.92 998.96 999.04 999.20 999.44 999.60 999.72 999.80 1000.16 1000.44 1000.36 1000.32 1000.28 1000.48 1001.12 1001.08 1001.16 1001.32 1001.36 1001.40 1001.56 1001.72 1001.88 1002.12 1002.40 1002.76 1003.08 1003.36 1003.60 1003.80 1004.08 1004.40 1004.72 1005.04 1005.36 1005.72 1006.08 1006.40 1006.72 1007.00 1007.24
1011.52 1011.16 1010.60 1009.96 1009.36 1008.68 1007.92 1007.08 1006.24 1005.68 1005.24 1004.96 1004.44 1003.76 1003.12 1002.56 1002.04 1001.44 1001.24 1001.16 1000.92 1000.52 1000.16 999.88 999.52 999.20 999.00 998.96 999.00 998.96 998.96 998.96 998.92 998.92 999.00 999.16 999.40 999.64 999.88 1000.04 999.96 999.92 1000.36 1000.40 1000.24 1000.32 1000.40 1000.88 1000.84 1001.08 1001.24 1001.36 1001.48 1001.56 1001.72 1001.84 1002.00 1002.28 1002.52 1002.84 1003.12 1003.40 1003.68 1003.88 1004.12 1004.40 1004.68 1005.00 1005.36 1005.68 1006.04 1006.36 1006.68 1006.96
1011.76 1011.36 1010.80 1010.16 1009.52 1008.56 1007.76 1006.92 1006.12 1005.48 1005.12 1005.04 1004.72 1004.40 1003.92 1003.44 1003.00 1002.40 1001.84 1001.40 1000.92 1000.36 999.96 999.72 999.52 999.36 999.16 999.00 998.96 999.00 999.00 999.04 999.04 999.08 999.24 999.44 999.56 999.84 999.88 1000.00 1000.12 1000.12 1000.36 1000.56 1000.48 1000.32 1000.32 1000.68 1000.84 1000.96 1001.16 1001.24 1001.36 1001.52 1001.64 1001.80 1001.92 1002.12 1002.36 1002.60 1002.88 1003.12 1003.36 1003.56 1003.84 1004.12 1004.36 1004.64 1004.96 1005.28 1005.64 1005.96 1006.28 1006.60
1012.12 1011.68 1011.08 1010.40 1009.76 1008.76 1008.04 1007.28 1006.64 1006.04 1005.60 1005.52 1005.24 1004.88 1004.40 1004.00 1003.64 1003.04 1002.64 1002.08 1001.32 1000.80 1000.40 1000.12 999.84 999.60 999.44 999.28 999.20 999.12 999.08 999.12 999.12 999.28 999.44 999.36 999.56 999.76 999.68 999.76 1000.00 1000.04 1000.12 1000.28 1000.44 1000.44 1000.32 1000.56 1000.84 1000.76 1000.88 1001.16 1001.28 1001.32 1001.44 1001.64 1001.80 1002.00 1002.24 1002.40 1002.64 1002.88 1003.12 1003.32 1003.56 1003.84 1004.12 1004.36 1004.64 1004.96 1005.32 1005.72 1006.12 1006.56
1012.48 1011.92 1011.40 1010.64 1009.84 1008.96 1008.36 1007.76 1007.24 1006.72 1006.28 1006.12 1005.92 1005.40 1004.96 1004.60 1004.28 1003.80 1003.40 1002.84 1002.08 1001.32 1000.76 1000.28 1000.00 999.56 999.32 999.28 999.28 999.24 999.20 999.16 999.24 999.36 999.44 999.40 999.48 999.64 999.80 999.84 999.96 1000.12 1000.04 1000.04 1000.32 1000.48 1000.40 1000.44 1000.72 1000.60 1000.88 1001.28 1001.00 1001.12 1001.28 1001.52 1001.64 1001.88 1002.16 1002.44 1002.64 1002.80 1003.00 1003.24 1003.44 1003.64 1003.84 1004.08 1004.36 1004.68 1005.00 1005.40 1005.92 1006.40
1012.52 1012.16 1011.64 1010.88 1009.96 1009.12 1008.68 1008.24 1007.76 1007.28 1006.80 1006.64 1006.48 1005.92 1005.52 1005.16 1004.64 1004.20 1003.84 1003.36 1002.76 1002.08 1001.60 1001.00 1000.52 1000.12 999.68 999.36 999.20 999.20 999.24 999.24 999.28 999.36 999.44 999.48 999.48 999.64 999.72 999.80 999.72 999.56 999.36 999.72 1000.00 1000.24 1000.28 1000.24 1000.44 1000.56 1000.32 1000.64 1001.08 1001.00 1001.20 1001.40 1001.56 1001.68 1001.92 1002.24 1002.48 1002.64 1002.92 1003.20 1003.44 1003.56 1003.72 1003.88 1004.08 1004.40 1004.72 1005.16 1005.60 1006.08
1012.96 1012.36 1011.80 1011.24 1010.40 1009.68 1009.24 1008.80 1008.36 1007.80 1007.40 1007.12 1006.96 1006.48 1006.24 1005.92 1005.44 1004.88 1004.52 1003.96 1003.36 1002.80 1002.20 1001.48 1000.72 1000.20 999.80 999.48 999.24 999.16 999.20 999.28 999.32 999.32 999.36 999.40 999.44 999.56 999.68 999.76 999.84 999.76 999.44 999.56 999.80 1000.00 1000.12 1000.16 1000.32 1000.60 1000.60 1000.44 1000.52 1000.92 1001.28 1001.32 1001.60 1001.72 1001.88 1002.00 1002.24 1002.56 1002.84 1003.04 1003.24 1003.52 1003.72 1003.88 1004.04 1004.20 1004.52 1004.84 1005.24 1005.60
1013.48 1012.92 1012.24 1011.68 1010.88 1010.28 1009.80 1009.40 1009.00 1008.44 1008.00 1007.68 1007.36 1007.00 1006.64 1006.24 1005.76 1005.60 1005.24 1004.64 1004.04 1003.44 1002.68 1002.00 1001.28 1000.64 1000.20 999.88 999.60 999.36 999.24 999.28 999.36 999.40 999.36 999.40 999.44 999.40 999.44 999.48 999.64 999.76 999.60 999.48 999.80 999.88 999.96 1000.16 1000.08 1000.32 1000.48 1000.52 1000.64 1000.64 1001.12 1001.48 1001.48 1001.72 1001.88 1002.04 1002.12 1002.32 1002.56 1002.88 1003.20 1003.40 1003.60 1003.76 1004.00 1004.16 1004.40 1004.64 1005.00 1005.32
1014.12 1013.48 1012.80 1012.20 1011.48 1010.88 1010.44 1010.08 1009.68 1009.20 1008.60 1008.32 1007.96 1007.44 1007.04 1006.76 1006.36 1006.04 1005.68 1005.28 1004.80 1004.16 1003.64 1003.20 1002.84 1002.40 1002.12 1001.84 1001.44 1000.92 1000.64 1000.36 1000.04 999.68 999.44 999.36 999.40 999.44 999.40 999.40 999.48 999.48 999.44 999.56 999.76 999.80 999.84 999.80 999.92 1000.00 1000.16 1000.32 1000.48 1000.80 1000.68 1001.04 1001.32 1001.76 1001.92 1002.08 1002.20 1002.36 1002.52 1002.76 1003.00 1003.16 1003.40 1003.64 1003.88 1004.08 1004.36 1004.64 1004.80 1005.08
1014.64 1013.92 1013.24 1012.64 1012.12 1011.60 1011.08 1010.76 1010.40 1009.96 1009.28 1008.96 1008.44 1008.00 1007.68 1007.40 1007.04 1006.64 1006.24 1005.92 1005.68 1005.24 1004.80 1004.44 1004.08 1003.76 1003.36 1003.08 1002.60 1002.12 1001.72 1001.28 1000.84 1000.20 999.60 999.36 999.32 999.36 999.40 999.44 999.48 999.52 999.56 999.60 999.64 999.76 999.80 999.76 999.88 999.92 1000.00 1000.20 1000.44 1000.60 1000.72 1000.96 1001.20 1001.56 1001.72 1002.12 1002.20 1002.32 1002.52 1002.68 1002.88 1003.12 1003.32 1003.48 1003.80 1004.08 1004.40 1004.64 1004.84 1005.28
1015.12 1014.44 1013.84 1013.32 1012.84 1012.32 1011.88 1011.60 1011.24 1010.88 1010.28 1009.68 1009.16 1008.68 1008.36 1008.00 1007.64 1007.36 1007.08 1006.88 1006.48 1006.16 1006.00 1005.72 1005.28 1004.84 1004.48 1004.12 1003.56 1002.88 1002.20 1001.48 1000.76 1000.12 999.60 999.36 999.32 999.32 999.36 999.40 999.44 999.48 999.52 999.56 999.60 999.72 999.80 999.84 999.88 999.96 1000.08 1000.12 1000.24 1000.36 1000.40 1000.60 1000.76 1001.36 1001.76 1002.00 1002.32 1002.24 1002.48 1002.68 1002.84 1003.08 1003.28 1003.48 1003.68 1003.88 1004.04 1004.28 1004.68 1005.00
1015.52 1015.00 1014.48 1014.04 1013.64 1013.24 1012.68 1012.36 1012.00 1011.68 1011.16 1010.60 1009.96 1009.44 1009.00 1008.72 1008.48 1008.16 1007.84 1007.60 1007.32 1007.20 1006.96 1006.60 1006.16 1005.68 1005.00 1004.32 1003.72 1003.04 1002.36 1001.72 1001.12 1000.60 1000.04 999.60 999.40 999.36 999.40 999.44 999.40 999.40 999.40 999.44 999.52 999.64 999.72 999.80 999.80 1000.00 1000.04 1000.12 1000.12 1000.28 1000.36 1000.36 1000.84 1001.04 1001.56 1001.56 1001.72 1002.12 1002.36 1002.52 1002.68 1002.80 1003.04 1003.28 1003.44 1003.60 1003.76 1004.00 1004.24 1004.52
1016.16 1015.84 1015.36 1014.92 1014.48 1014.00 1013.44 1013.04 1012.68 1012.20 1011.64 1011.04 1010.60 1010.28 1010.00 1009.68 1009.32 1008.96 1008.60 1008.52 1008.36 1008.04 1007.68 1007.24 1006.76 1006.16 1005.60 1004.84 1004.00 1003.32 1002.84 1002.36 1001.72 1001.12 1000.72 1000.12 999.52 999.32 999.36 999.36 999.24 999.28 999.24 999.28 999.36 999.40 999.52 999.60 999.72 999.88 1000.00 1000.04 1000.20 1000.16 1000.20 1000.28 1000.44 1000.96 1001.36 1001.44 1001.44 1001.32 1001.68 1002.24 1002.48 1002.68 1002.80 1003.00 1003.28 1003.56 1003.76 1003.96 1004.16 1004.28
1016.88 1016.40 1015.92 1015.40 1014.76 1014.08 1013.48 1013.08 1012.80 1012.52 1012.28 1011.96 1011.52 1011.12 1010.72 1010.48 1010.12 1009.72 1009.28 1008.84 1008.60 1008.44 1008.16 1007.76 1007.24 1006.60 1006.08 1005.56 1004.96 1004.40 1003.84 1003.28 1002.60 1002.00 1001.36 1000.76 1000.04 999.40 999.28 999.28 999.16 999.04 999.04 999.16 999.20 999.24 999.32 999.44 999.60 999.80 999.88 999.96 1000.16 1000.24 1000.24 1000.28 1000.36 1000.64 1001.00 1001.28 1001.32 1001.32 1001.60 1001.84 1002.04 1002.36 1002.60 1002.84 1003.20 1003.40 1003.56 1003.68 1003.88 1004.08
1017.20 1016.56 1015.80 1015.28 1014.84 1014.56 1014.28 1013.92 1013.60 1013.24 1012.80 1012.48 1012.24 1011.80 1011.20 1010.96 1010.56 1010.04 1009.52 1009.24 1009.16 1008.84 1008.28 1008.00 1007.64 1007.20 1006.72 1006.20 1005.68 1005.16 1004.44 1003.80 1003.24 1002.56 1001.84 1000.96 1000.48 999.64 999.20 999.04 998.84 998.84 998.92 999.00 999.12 999.16 999.24 999.40 999.52 999.64 999.84 999.96 1000.00 1000.04 1000.16 1000.32 1000.36 1000.44 1000.60 1001.04 1001.28 1001.36 1001.64 1001.76 1001.88 1002.20 1002.52 1002.72 1002.88 1003.12 1003.36 1003.56 1003.56 1003.64
1018.08 1017.48 1017.12 1016.72 1016.40 1015.96 1015.44 1015.04 1014.60 1014.20 1013.84 1013.40 1012.84 1012.48 1012.08 1011.64 1011.24 1010.84 1010.48 1010.08 1009.88 1009.44 1009.20 1008.80 1008.12 1007.68 1007.24 1006.80 1006.20 1005.64 1004.96 1004.12 1003.44 1002.92 1002.36 1001.48 1000.68 1000.04 999.16 998.80 998.72 998.60 998.56 998.60 998.80 998.92 999.12 999.32 999.60 999.80 999.92 1000.04 1000.12 1000.12 1000.04 1000.12 1000.28 1000.48 1000.52 1000.72 1001.04 1001.20 1001.48 1001.84 1001.96 1002.08 1002.16 1002.24 1002.60 1003.08 1003.28 1003.28 1003.36 1003.48
1018.40 1018.08 1017.72 1017.52 1017.24 1017.00 1016.68 1016.24 1015.84 1015.40 1014.88 1014.40 1013.92 1013.40 1013.00 1012.52 1012.08 1011.64 1011.24 1010.68 1010.44 1010.12 1009.76 1009.12 1008.84 1008.44 1008.08 1007.52 1006.92 1006.32 1005.64 1004.84 1003.88 1003.08 1002.52 1001.88 1001.00 1000.24 999.40 998.68 998.44 998.48 998.52 998.48 998.64 998.84 998.96 999.24 999.52 999.76 1000.04 1000.20 1000.28 1000.20 1000.08 1000.04 1000.16 1000.44 1000.56 1000.72 1000.88 1001.08 1001.40 1001.72 1001.88 1002.12 1002.24 1002.36 1002.48 1002.68 1002.84 1002.96 1003.04 1003.24
1019.00 1018.88 1018.68 1018.36 1018.08 1017.76 1017.36 1017.08 1016.72 1016.28 1015.84 1015.40 1014.92 1014.36 1013.64 1013.24 1012.92 1012.48 1012.04 1011.48 1011.16 1010.76 1010.28 1009.80 1009.52 1009.08 1008.60 1008.08 1007.60 1006.92 1006.24 1005.36 1004.48 1003.52 1002.64 1002.04 1001.40 1000.52 999.68 999.08 998.48 998.28 998.28 998.28 998.36 998.60 998.88 999.08 999.24 999.44 999.64 999.88 1000.08 1000.12 999.80 999.76 999.96 1000.16 1000.48 1000.72 1000.80 1000.96 1001.20 1001.48 1001.68 1001.88 1002.12 1002.28 1002.36 1002.40 1002.60 1002.60 1002.68 1002.84
1019.72 1019.48 1019.32 1019.12 1018.84 1018.52 1018.16 1017.80 1017.40 1017.00 1016.68 1016.20 1015.68 1015.28 1014.80 1014.28 1013.76 1013.36 1012.80 1012.12 1011.72 1011.40 1011.00 1010.56 1010.16 1009.80 1009.12 1008.68 1008.08 1007.48 1006.72 1005.88 1005.00 1004.04 1003.40 1002.84 1002.36 1001.76 1001.08 1000.12 999.24 998.56 998.24 998.16 998.16 998.40 998.64 998.88 999.04 999.16 999.40 999.64 999.72 999.68 999.40 999.60 999.96 999.96 1000.00 1000.36 1000.64 1000.72 1000.92 1001.28 1001.60 1001.84 1001.88 1001.88 1002.12 1002.20 1002.04 1002.20 1002.28 1002.48
1020.32 1020.16 1019.80 1019.60 1019.40 1019.16 1018.84 1018.44 1017.96 1017.48 1017.12 1016.76 1016.36 1015.84 1015.40 1015.04 1014.52 1013.88 1013.12 1012.48 1012.12 1011.76 1011.36 1011.04 1010.60 1010.08 1009.68 1009.32 1008.64 1007.92 1007.16 1006.32 1005.44 1004.72 1004.24 1003.76 1003.16 1002.60 1002.08 1001.40 1000.48 999.52 998.60 998.04 998.00 998.16 998.32 998.56 998.84 998.96 999.08 999.32 999.44 999.48 999.64 999.68 999.76 999.84 999.92 1000.04 1000.36 1000.60 1000.68 1000.96 1001.32 1001.40 1001.60 1001.84 1001.76 1001.80 1001.96 1002.08 1002.04 1002.04
1020.84 1020.60 1020.40 1020.16 1019.88 1019.64 1019.24 1018.92 1018.56 1018.16 1017.76 1017.28 1016.88 1016.40 1015.88 1015.40 1014.88 1014.16 1013.44 1013.00 1012.72 1012.28 1011.72 1011.20 1010.88 1010.52 1010.24 1009.80 1009.36 1008.68 1007.80 1006.76 1005.92 1005.36 1004.88 1004.48 1004.04 1003.52 1002.76 1002.04 1001.28 1000.36 999.40 998.44 998.00 997.92 998.12 998.32 998.40 998.60 998.64 998.92 999.08 999.08 999.16 999.48 999.52 999.12 999.36 999.52 999.76 1000.12 1000.32 1000.28 1000.48 1000.84 1001.12 1001.48 1001.64 1001.64 1001.72 1001.68 1001.80 1002.04
1021.24 1021.16 1020.92 1020.64 1020.32 1020.00 1019.68 1019.36 1019.04 1018.76 1018.36 1017.92 1017.52 1017.04 1016.52 1016.00 1015.40 1014.68 1014.00 1013.56 1013.16 1012.84 1012.48 1012.00 1011.48 1010.88 1010.40 1010.04 1009.52 1008.88 1008.16 1007.52 1006.88 1006.24 1005.68 1005.12 1004.44 1003.80 1003.16 1002.44 1001.72 1000.80 999.84 998.92 998.28 998.08 998.08 998.04 998.12 998.16 998.24 998.16 998.24 998.52 998.68 998.88 998.88 999.00 999.16 999.24 999.24 999.40 999.76 1000.04 1000.20 1000.44 1000.84 1000.88 1001.16 1001.60 1001.80 1001.92 1002.08 1002.08
1021.44 1021.20 1021.08 1020.92 1020.72 1020.36 1020.00 1019.68 1019.40 1019.12 1018.76 1018.36 1017.96 1017.44 1017.04 1016.56 1015.96 1015.20 1014.76 1014.28 1013.96 1013.44 1012.88 1012.40 1011.96 1011.48 1011.00 1010.44 1009.84 1009.36 1008.72 1007.92 1007.32 1006.72 1006.16 1005.60 1004.96 1004.20 1003.48 1002.80 1002.20 1001.56 1001.00 1000.16 999.24 998.48 998.12 998.04 997.96 997.84 997.76 997.80 998.04 998.40 998.60 998.88 998.96 998.92 999.12 999.08 999.16 999.28 999.44 999.60 999.80 1000.00 1000.20 1000.48 1000.84 1001.12 1001.40 1001.64 1001.96 1002.08
1021.88 1021.60 1021.36 1021.12 1020.84 1020.60 1020.36 1020.00 1019.64 1019.32 1018.96 1018.64 1018.24 1017.76 1017.32 1016.88 1016.48 1015.80 1015.32 1014.80 1014.40 1013.96 1013.52 1012.92 1012.40 1011.88 1011.40 1010.92 1010.36 1009.76 1009.24 1008.60 1007.84 1007.16 1006.64 1006.08 1005.32 1004.56 1003.92 1003.36 1002.88 1002.28 1001.80 1001.20 1000.52 999.72 998.76 998.16 997.88 997.88 998.00 998.12 998.28 998.44 998.40 998.24 998.40 998.48 998.64 998.76 998.84 998.92 999.00 999.16 999.36 999.56 999.76 1000.08 1000.48 1000.84 1001.12 1001.40 1001.60 1001.88
1022.12 1021.88 1021.52 1021.24 1021.04 1020.76 1020.52 1020.20 1019.96 1019.64 1019.24 1018.88 1018.48 1018.08 1017.64 1017.16 1016.68 1016.08 1015.56 1015.12 1014.72 1014.32 1013.88 1013.44 1012.96 1012.48 1012.00 1011.44 1010.92 1010.40 1009.80 1009.08 1008.40 1007.84 1007.20 1006.52 1005.92 1005.32 1004.56 1003.96 1003.44 1002.92 1002.40 1001.68 1000.84 1000.04 999.12 998.28 997.92 997.80 997.84 998.00 998.04 997.96 997.92 997.88 997.96 998.08 998.24 998.40 998.56 998.76 998.92 999.00 999.12 999.32 999.56 999.68 999.68 999.76 999.96 1000.28 1000.92 1001.20
1022.32 1022.00 1021.76 1021.48 1021.20 1020.88 1020.60 1020.36 1020.08 1019.84 1019.52 1019.20 1018.80 1018.40 1017.96 1017.48 1017.00 1016.60 1016.20 1015.76 1015.36 1014.88 1014.44 1014.00 1013.48 1013.00 1012.48 1011.92 1011.32 1010.80 1010.28 1009.64 1009.04 1008.48 1007.76 1007.08 1006.56 1006.00 1005.24 1004.48 1003.76 1003.20 1002.60 1001.92 1001.12 1000.36 999.52 998.68 998.04 997.80 997.80 997.76 997.72 997.84 997.80 997.80 997.96 997.96 998.04 998.00 998.04 998.40 998.72 998.96 999.20 999.40 999.52 999.60 999.64 999.64 999.68 999.72 999.72 999.84
1022.60 1022.28 1021.92 1021.64 1021.40 1021.12 1020.80 1020.52 1020.24 1019.92 1019.64 1019.32 1018.96 1018.64 1018.24 1017.88 1017.48 1017.00 1016.56 1016.20 1015.80 1015.40 1014.92 1014.44 1013.96 1013.48 1012.96 1012.36 1011.76 1011.20 1010.64 1010.12 1009.64 1009.04 1008.28 1007.64 1007.00 1006.36 1005.76 1005.04 1004.32 1003.60 1003.00 1002.36 1001.68 1000.76 1000.04 999.40 998.44 997.80 997.64 997.48 997.48 997.52 997.48 997.56 997.68 997.80 997.88 997.88 998.00 998.16 998.28 998.56 998.96 999.28 999.48 999.48 999.36 999.52 999.68 999.80 999.88 999.88
Thickness
5226 5237 5246 5255 5267 5279 5290 5302 5311 5317 5324 5329 5336 5343 5351 5359 5367 5376 5385 5394 5402 5409 5416 5421 5425 5430 5435 5439 5443 5446 5450 5453 5455 5459 5465 5469 5474 5479 5484 5488 5493 5498 5503 5509 5511 5512 5515 5519 5522 5527 5531 5535 5539 5539 5537 5539 5543 5548 5552 5553 5552 5555 5558 5558 5558 5559 5559 5559 5560 5561 5561 5562 5562 5562
5213 5224 5234 5245 5257 5270 5282 5295 5305 5312 5318 5324 5330 5338 5346 5353 5361 5369 5378 5388 5398 5404 5412 5419 5423 5426 5430 5433 5438 5442 5445 5448 5451 5455 5459 5463 5469 5474 5477 5480 5485 5490 5494 5500 5503 5505 5509 5513 5517 5520 5524 5529 5535 5537 5536 5535 5536 5540 5545 5548 5549 5549 5551 5552 5553 5555 5555 5555 5556 5558 5558 5558 5558 5559
5199 5211 5223 5235 5248 5260 5273 5286 5298 5306 5313 5320 5326 5333 5341 5347 5355 5363 5369 5379 5392 5400 5406 5414 5420 5423 5427 5429 5432 5436 5440 5443 5447 5450 5453 5458 5462 5466 5471 5474 5478 5482 5487 5492 5497 5499 5503 5508 5512 5515 5517 5522 5528 5532 5535 5534 5533 5535 5539 5542 5545 5545 5545 5546 5548 5549 5550 5551 5553 5554 5554 5555 5555 5555
5185 5198 5211 5224 5236 5249 5262 5277 5291 5301 5309 5316 5322 5328 5335 5342 5350 5356 5363 5372 5384 5392 5399 5407 5414 5420 5423 5425 5428 5432 5435 5438 5442 5445 5448 5452 5455 5459 5465 5469 5472 5476 5481 5485 5491 5496 5499 5504 5509 5511 5513 5517 5522 5525 5530 5532 5532 5533 5536 5539 5541 5541 5542 5543 5544 5545 5546 5547 5548 5549 5550 5551 5551 5551
5173 5186 5200 5213 5226 5239 5252 5267 5283 5296 5305 5312 5318 5324 5329 5336 5344 5350 5358 5366 5374 5383 5391 5398 5405 5412 5417 5420 5424 5428 5431 5432 5435 5439 5443 5446 5450 5455 5460 5463 5467 5471 5475 5480 5485 5492 5497 5500 5504 5506 5508 5512 5516 5520 5525 5529 5531 5532 5533 5536 5538 5537 5539 5541 5542 5542 5542 5543 5544 5545 5546 5547 5547 5547
5164 5176 5189 5202 5216 5229 5243 5259 5274 5288 5299 5307 5314 5320 5324 5330 5338 5346 5353 5359 5366 5375 5384 5390 5397 5404 5410 5414 5418 5422 5426 5428 5430 5433 5436 5441 5445 5450 5454 5458 5462 5466 5470 5474 5479 5485 5492 5497 5500 5501 5504 5507 5511 5515 5519 5524 5529 5531 5531 5532 5533 5533 5535 5539 5540 5540 5540 5539 5540 5541 5543 5544 5543 5543
5155 5167 5179 5192 5206 5220 5235 5251 5264 5277 5290 5302 5310 5316 5320 5324 5331 5340 5347 5353 5360 5368 5375 5383 5389 5395 5402 5407 5412 5416 5419 5422 5424 5427 5431 5435 5439 5443 5448 5452 5457 5462 5465 5470 5474 5479 5485 5492 5496 5498 5499 5503 5507 5511 5514 5518 5524 5528 5528 5528 5528 5528 5531 5535 5538 5538 5537 5537 5537 5539 5540 5539 5539 5539
5148 5158 5170 5184 5197 5212 5227 5241 5253 5266 5280 5294 5305 5312 5315 5319 5325 5333 5341 5349 5355 5361 5367 5376 5382 5388 5394 5400 5403 5408 5411 5414 5418 5422 5426 5429 5433 5437 5442 5447 5453 5457 5461 5465 5469 5473 5479 5484 5490 5492 5493 5497 5502 5506 5508 5512 5517 5521 5523 5523 5523 5523 5527 5530 5533 5535 5535 5534 5534 5536 5537 5536 5535 5535
5142 5151 5162 5174 5188 5203 5218 5230 5243 5256 5269 5282 5296 5306 5311 5315 5320 5326 5333 5342 5349 5356 5362 5369 5376 5381 5387 5392 5396 5400 5404 5407 5411 5415 5419 5423 5427 5431 5435 5440 5446 5451 5454 5459 5463 5466 5471 5476 5481 5486 5488 5491 5496 5501 5504 5507 5511 5515 5517 5517 5517 5518 5521 5524 5527 5529 5530 5531 5531 5532 5533 5534 5532 5531
5137 5146 5155 5166 5180 5194 5208 5220 5233 5246 5258 5270 5283 5293 5302 5309 5315 5321 5327 5334 5342 5350 5357 5362 5369 5375 5381 5386 5390 5393 5399 5402 5404 5407 5411 5415 5419 5424 5429 5432 5437 5442 5446 5451 5455 5459 5463 5467 5472 5478 5481 5484 5489 5495 5499 5501 5504 5507 5511 5511 5511 5512 5514 5517 5520 5523 5524 5525 5528 5529 5530 5531 5529 5529
5132 5139 5147 5158 5172 5185 5198 5210 5223 5236 5248 5259 5270 5281 5292 5302 5310 5317 5323 5328 5335 5343 5351 5356 5362 5368 5375 5380 5385 5388 5392 5397 5400 5402 5404 5407 5411 5416 5421 5425 5429 5433 5438 5442 5447 5451 5455 5460 5464 5469 5473 5477 5483 5489 5492 5494 5496 5499 5503 5505 5505 5505 5506 5509 5512 5516 5518 5519 5522 5524 5527 5528 5526 5526
5128 5134 5142 5153 5165 5177 5190 5203 5215 5226 5238 5249 5261 5272 5282 5292 5303 5311 5318 5324 5330 5337 5344 5351 5356 5362 5367 5373 5379 5382 5386 5391 5395 5398 5402 5405 5407 5410 5414 5418 5421 5426 5430 5435 5439 5443 5448 5452 5456 5461 5465 5470 5475 5480 5483 5486 5488 5491 5495 5498 5500 5500 5500 5502 5505 5509 5511 5514 5516 5520 5522 5523 5522 5522
5126 5132 5140 5149 5159 5171 5184 5195 5206 5218 5229 5239 5252 5264 5274 5283 5294 5305 5313 5319 5325 5331 5338 5344 5350 5355 5361 5367 5372 5376 5381 5386 5389 5392 5397 5401 5403 5405 5408 5412 5415 5418 5423 5426 5431 5436 5441 5444 5448 5452 5457 5461 5467 5471 5475 5479 5481 5485 5488 5491 5494 5495 5494 5495 5499 5502 5505 5509 5512 5514 5516 5517 5517 5518
5122 5128 5135 5144 5153 5165 5176 5187 5199 5211 5222 5234 5245 5257 5267 5276 5285 5297 5306 5313 5320 5325 5331 5337 5343 5349 5355 5361 5366 5370 5375 5379 5383 5386 5390 5394 5397 5399 5402 5406 5409 5413 5416 5420 5423 5428 5434 5438 5442 5446 5450 5455 5459 5464 5468 5473 5476 5479 5482 5484 5486 5488 5487 5488 5492 5496 5500 5503 5505 5508 5509 5510 5511 5513
5119 5124 5131 5138 5147 5158 5169 5180 5191 5204 5218 5232 5243 5253 5262 5270 5277 5287 5297 5306 5313 5319 5325 5330 5336 5342 5348 5354 5360 5365 5368 5372 5376 5380 5384 5388 5391 5394 5398 5403 5406 5409 5412 5416 5419 5422 5426 5432 5437 5441 5445 5449 5454 5458 5462 5466 5469 5472 5474 5477 5478 5480 5481 5482 5486 5490 5494 5496 5499 5500 5501 5503 5504 5507
5115 5121 5128 5135 5142 5151 5162 5172 5185 5199 5215 5227 5237 5247 5256 5265 5272 5280 5288 5297 5304 5311 5317 5323 5329 5335 5341 5346 5353 5359 5362 5366 5369 5373 5377 5381 5386 5390 5394 5400 5404 5406 5407 5411 5416 5418 5421 5426 5431 5436 5440 5444 5448 5452 5456 5459 5462 5465 5467 5470 5472 5473 5475 5476 5479 5483 5486 5489 5491 5493 5494 5496 5498 5500
5109 5116 5123 5129 5137 5145 5155 5166 5179 5194 5209 5220 5229 5239 5248 5259 5268 5275 5283 5290 5296 5303 5310 5317 5323 5328 5333 5340 5345 5351 5356 5360 5363 5366 5370 5374 5379 5384 5388 5394 5399 5400 5401 5406 5411 5415 5416 5419 5425 5430 5434 5438 5442 5446 5449 5452 5455 5458 5461 5463 5466 5468 5469 5471 5472 5475 5479 5481 5484 5486 5488 5490 5492 5494
5103 5109 5116 5124 5131 5139 5149 5160 5174 5189 5201 5211 5221 5230 5240 5251 5261 5269 5277 5283 5290 5296 5303 5310 5315 5321 5327 5332 5338 5343 5349 5353 5357 5361 5364 5368 5372 5377 5381 5387 5391 5393 5397 5402 5406 5410 5413 5414 5419 5424 5428 5432 5437 5440 5443 5446 5448 5451 5454 5457 5459 5462 5464 5466 5467 5469 5471 5474 5477 5479 5481 5483 5485 5487
5099 5104 5110 5118 5126 5135 5144 5155 5169 5182 5193 5201 5211 5222 5232 5241 5251 5261 5268 5273 5280 5288 5294 5301 5307 5313 5319 5325 5330 5335 5341 5346 5350 5355 5360 5363 5367 5372 5376 5381 5386 5389 5392 5397 5402 5407 5410 5411 5415 5420 5423 5426 5431 5434 5437 5441 5443 5446 5448 5450 5453 5456 5459 5461 5463 5464 5467 5468 5471 5473 5474 5477 5478 5480
5096 5101 5107 5115 5123 5132 5143 5154 5166 5177 5186 5193 5203 5212 5222 5231 5241 5250 5258 5264 5271 5279 5286 5294 5301 5307 5314 5319 5323 5327 5333 5338 5343 5348 5354 5357 5360 5365 5369 5374 5380 5383 5386 5390 5397 5403 5405 5407 5411 5415 5417 5420 5425 5429 5432 5436 5438 5440 5443 5445 5447 5450 5453 5456 5458 5460 5462 5464 5466 5468 5469 5471 5474 5476
5094 5098 5104 5111 5120 5131 5142 5153 5164 5174 5182 5188 5196 5205 5213 5221 5230 5239 5247 5255 5264 5272 5280 5287 5294 5300 5307 5312 5316 5321 5325 5330 5335 5340 5345 5349 5352 5357 5362 5367 5372 5377 5380 5384 5389 5394 5400 5403 5405 5409 5412 5415 5419 5423 5427 5430 5433 5436 5438 5441 5443 5446 5448 5451 5454 5456 5459 5460 5462 5464 5465 5467 5469 5470
5091 5095 5101 5108 5117 5128 5138 5149 5159 5169 5176 5183 5189 5198 5206 5213 5221 5229 5237 5246 5256 5266 5274 5281 5288 5294 5299 5304 5308 5313 5318 5323 5328 5332 5336 5340 5345 5350 5355 5361 5364 5368 5374 5379 5382 5387 5393 5396 5399 5403 5406 5409 5414 5419 5422 5425 5428 5430 5433 5436 5439 5442 5445 5447 5450 5452 5454 5457 5458 5460 5461 5462 5463 5464
5089 5093 5099 5106 5115 5125 5134 5143 5152 5161 5169 5175 5182 5190 5198 5206 5213 5220 5227 5236 5247 5257 5266 5274 5281 5287 5294 5299 5303 5307 5312 5316 5321 5325 5329 5334 5340 5344 5348 5353 5357 5363 5370 5374 5377 5381 5386 5389 5392 5397 5400 5403 5409 5414 5416 5419 5422 5425 5428 5430 5434 5437 5440 5442 5445 5448 5450 5452 5454 5456 5456 5457 5457 5458
5088 5092 5097 5104 5113 5122 5130 5138 5146 5154 5163 5169 5175 5183 5191 5197 5204 5212 5219 5228 5237 5247 5256 5265 5273 5280 5287 5293 5298 5302 5307 5311 5314 5318 5323 5329 5334 5338 5342 5347 5352 5360 5366 5369 5371 5375 5379 5383 5386 5391 5396 5400 5403 5406 5409 5413 5416 5419 5422 5424 5428 5431 5433 5436 5439 5442 5444 5447 5449 5450 5452 5452 5453 5454
5085 5090 5095 5101 5109 5118 5125 5133 5140 5148 5156 5163 5168 5176 5182 5188 5196 5203 5211 5220 5228 5237 5246 5255 5265 5273 5280 5286 5292 5297 5301 5305 5309 5313 5317 5322 5328 5332 5337 5342 5347 5353 5359 5361 5365 5369 5372 5377 5380 5384 5389 5394 5398 5400 5402 5405 5409 5412 5416 5419 5422 5424 5427 5429 5433 5435 5437 5440 5442 5444 5446 5447 5449 5450
5081 5086 5091 5097 5105 5113 5120 5126 5134 5141 5149 5156 5162 5169 5175 5182 5189 5195 5202 5211 5219 5228 5237 5245 5254 5262 5269 5276 5282 5288 5294 5299 5304 5309 5313 5317 5322 5327 5333 5337 5341 5346 5351 5353 5356 5361 5365 5370 5375 5378 5382 5387 5391 5393 5396 5398 5402 5405 5408 5412 5415 5418 5421 5424 5426 5428 5431 5433 5435 5438 5440 5442 5443 5446
5078 5082 5088 5094 5101 5108 5114 5120 5127 5134 5143 5149 5155 5163 5170 5175 5182 5188 5195 5202 5209 5217 5226 5232 5239 5246 5253 5259 5266 5275 5282 5288 5294 5302 5308 5312 5316 5321 5326 5331 5336 5339 5342 5345 5349 5354 5360 5364 5368 5372 5377 5380 5382 5386 5390 5393 5396 5398 5401 5405 5408 5411 5414 5418 5421 5423 5425 5427 5429 5431 5432 5434 5437 5439
5073 5078 5084 5089 5095 5102 5108 5113 5120 5127 5135 5142 5149 5156 5162 5168 5175 5181 5187 5193 5199 5206 5213 5218 5225 5231 5237 5244 5252 5260 5267 5274 5282 5292 5300 5306 5310 5314 5319 5324 5328 5331 5335 5339 5344 5348 5353 5357 5361 5365 5369 5372 5376 5380 5385 5387 5389 5391 5393 5395 5399 5403 5407 5411 5413 5416 5418 5420 5422 5423 5425 5428 5431 5431
5069 5074 5080 5084 5089 5095 5101 5106 5112 5119 5126 5134 5141 5148 5155 5160 5166 5172 5177 5183 5188 5194 5200 5205 5212 5219 5226 5232 5240 5249 5257 5266 5275 5285 5293 5300 5304 5308 5312 5316 5320 5325 5329 5333 5338 5342 5345 5350 5354 5357 5361 5366 5371 5374 5377 5380 5383 5384 5386 5388 5392 5396 5399 5402 5405 5408 5410 5412 5415 5417 5420 5424 5424 5424
5065 5069 5074 5078 5083 5088 5093 5099 5104 5110 5118 5125 5133 5140 5146 5152 5157 5162 5168 5173 5177 5182 5188 5194 5201 5208 5215 5224 5233 5242 5250 5259 5268 5275 5283 5292 5298 5302 5306 5310 5314 5318 5322 5327 5331 5335 5339 5343 5346 5349 5353 5358 5363 5366 5370 5374 5376 5377 5379 5383 5387 5389 5391 5395 5398 5400 5403 5405 5408 5411 5414 5415 5416 5419
5061 5063 5067 5071 5076 5082 5087 5093 5099 5104 5111 5118 5124 5131 5136 5141 5147 5152 5157 5162 5167 5171 5178 5184 5191 5199 5207 5215 5225 5233 5241 5248 5255 5263 5272 5281 5290 5297 5300 5305 5309 5313 5316 5320 5325 5330 5333 5336 5339 5342 5346 5350 5354 5358 5361 5365 5369 5370 5371 5375 5380 5384 5387 5389 5391 5393 5396 5399 5400 5402 5404 5407 5410 5414
5055 5059 5063 5068 5074 5080 5085 5090 5095 5099 5105 5110 5115 5121 5127 5133 5138 5144 5150 5156 5160 5165 5171 5177 5184 5191 5198 5205 5213 5221 5228 5236 5243 5252 5262 5271 5280 5289 5295 5300 5305 5308 5311 5314 5318 5323 5326 5329 5332 5335 5338 5342 5346 5349 5352 5357 5361 5364 5365 5367 5371 5376 5379 5382 5384 5386 5387 5389 5390 5393 5396 5400 5404 5409
5052 5056 5061 5065 5070 5075 5079 5083 5088 5092 5097 5103 5108 5113 5119 5125 5130 5137 5143 5149 5153 5158 5164 5169 5175 5182 5189 5196 5203 5210 5218 5226 5233 5242 5252 5262 5271 5280 5288 5295 5300 5304 5307 5309 5312 5316 5319 5321 5324 5327 5330 5332 5336 5340 5344 5349 5354 5357 5359 5360 5363 5366 5370 5373 5375 5376 5377 5380 5383 5385 5388 5393 5398 5403
5047 5052 5056 5058 5061 5065 5068 5073 5079 5083 5088 5094 5099 5105 5110 5116 5121 5127 5133 5138 5143 5149 5154 5160 5167 5174 5180 5186 5193 5200 5208 5217 5226 5234 5243 5252 5262 5271 5282 5290 5295 5298 5302 5306 5308 5310 5312 5313 5315 5318 5320 5322 5326 5331 5336 5343 5347 5350 5352 5354 5356 5359 5361 5362 5364 5366 5370 5373 5376 5377 5380 5386 5391 5395
5042 5046 5049 5051 5053 5056 5060 5064 5068 5073 5078 5083 5089 5095 5101 5107 5112 5117 5124 5130 5134 5139 5145 5152 5158 5163 5169 5176 5183 5190 5198 5207 5217 5226 5235 5244 5253 5264 5275 5284 5289 5294 5297 5300 5303 5304 5306 5307 5308 5310 5311 5314 5316 5322 5330 5337 5340 5342 5344 5346 5349 5351 5352 5353 5355 5357 5360 5364 5366 5369 5373 5379 5384 5387
5037 5039 5041 5044 5047 5050 5053 5057 5060 5064 5069 5074 5079 5086 5091 5098 5102 5107 5113 5120 5125 5130 5137 5143 5147 5153 5160 5166 5173 5180 5188 5197 5208 5218 5228 5236 5244 5254 5265 5275 5283 5288 5292 5295 5298 5299 5300 5301 5303 5304 5306 5308 5311 5318 5327 5333 5333 5334 5336 5339 5341 5343 5344 5345 5347 5349 5352 5356 5359 5363 5368 5373 5377 5379
5033 5034 5036 5038 5041 5043 5047 5050 5054 5057 5062 5066 5071 5077 5082 5087 5093 5098 5105 5111 5117 5122 5127 5133 5138 5144 5150 5157 5164 5171 5179 5188 5198 5208 5217 5225 5233 5241 5250 5260 5270 5279 5286 5290 5293 5294 5295 5296 5297 5299 5302 5304 5308 5316 5323 5325 5324 5327 5330 5332 5334 5336 5337 5337 5338 5341 5345 5349 5352 5357 5362 5367 5370 5372
5027 5029 5031 5033 5035 5038 5041 5044 5048 5052 5056 5060 5065 5070 5074 5079 5085 5091 5099 5105 5110 5115 5120 5126 5131 5137 5142 5148 5155 5162 5171 5180 5190 5198 5205 5212 5219 5227 5235 5244 5255 5265 5276 5284 5288 5290 5291 5292 5293 5296 5299 5302 5306 5313 5316 5315 5317 5321 5324 5324 5325 5327 5329 5331 5334 5336 5339 5341 5345 5350 5354 5359 5362 5363
5023 5024 5025 5028 5030 5033 5036 5039 5042 5046 5050 5054 5059 5063 5068 5074 5079 5086 5092 5098 5102 5108 5113 5119 5124 5130 5135 5140 5146 5153 5162 5171 5180 5188 5194 5200 5207 5214 5223 5232 5241 5252 5264 5274 5281 5284 5286 5288 5290 5293 5296 5300 5305 5308 5307 5306 5310 5314 5315 5316 5319 5322 5324 5328 5331 5332 5333 5335 5338 5341 5345 5348 5352 5353
5021 5020 5021 5023 5026 5028 5031 5034 5037 5040 5044 5048 5052 5057 5062 5067 5073 5079 5086 5091 5095 5100 5106 5111 5117 5122 5128 5134 5140 5147 5155 5162 5170 5177 5184 5190 5198 5205 5213 5222 5231 5241 5251 5262 5271 5277 5280 5283 5286 5289 5293 5297 5300 5299 5297 5299 5304 5308 5309 5313 5318 5320 5321 5323 5325 5327 5329 5331 5332 5333 5334 5338 5341 5343
5019 5018 5018 5019 5021 5024 5027 5030 5033 5036 5039 5043 5047 5052 5056 5061 5067 5073 5078 5083 5088 5093 5099 5104 5109 5115 5121 5127 5133 5140 5147 5154 5162 5169 5175 5182 5190 5198 5206 5213 5221 5229 5238 5247 5257 5265 5272 5276 5280 5283 5287 5290 5290 5288 5290 5295 5301 5305 5306 5309 5311 5314 5315 5318 5321 5322 5325 5326 5325 5326 5329 5332 5333 5334
5016 5016 5017 5017 5018 5020 5023 5026 5029 5032 5036 5039 5043 5047 5052 5056 5061 5067 5072 5077 5082 5087 5092 5097 5103 5109 5114 5120 5126 5132 5138 5146 5154 5160 5167 5174 5182 5190 5198 5205 5211 5218 5226 5233 5241 5251 5260 5268 5272 5276 5279 5280 5281 5282 5287 5294 5298 5301 5302 5302 5304 5307 5309 5312 5315 5317 5319 5320 5321 5323 5326 5325 5324 5327
5014 5014 5015 5016 5016 5017 5019 5022 5024 5028 5031 5035 5038 5042 5047 5052 5057 5062 5067 5072 5077 5081 5086 5091 5096 5101 5107 5112 5118 5124 5130 5138 5145 5152 5158 5166 5172 5179 5188 5195 5202 5208 5215 5223 5232 5241 5250 5259 5266 5268 5271 5273 5275 5279 5285 5290 5292 5293 5296 5298 5299 5300 5301 5304 5307 5309 5312 5314 5318 5322 5324 5323 5323 5327
5013 5013 5014 5014 5014 5015 5017 5019 5021 5024 5027 5031 5034 5038 5042 5047 5051 5056 5061 5065 5070 5074 5079 5084 5090 5095 5100 5105 5112 5117 5123 5129 5135 5142 5149 5156 5162 5169 5177 5185 5193 5200 5207 5215 5223 5232 5241 5250 5258 5262 5265 5268 5271 5274 5278 5282 5284 5285 5288 5291 5292 5292 5293 5296 5298 5299 5301 5306 5312 5316 5318 5320 5323 5327
5013 5012 5013 5012 5013 5013 5015 5016 5018 5021 5024 5027 5030 5034 5038 5041 5046 5050 5055 5059 5063 5068 5072 5077 5083 5088 5093 5099 5104 5109 5116 5121 5126 5133 5140 5147 5153 5161 5167 5175 5183 5190 5197 5205 5213 5221 5229 5238 5247 5255 5260 5263 5266 5270 5272 5275 5277 5278 5280 5283 5285 5286 5288 5290 5291 5291 5294 5300 5305 5309 5309 5313 5316 5319